RH
31 32 34 37 39 40 41 40 40 40 39 39 39 39 38 38 38 36 36 36 35 34 34 34 35 36 36 38 39 42 44 44 44 41 39 37 35 34 34 34 34 34
29 30 32 34 35 37 39 38 38 38 38 39 40 39 39 38 37 35 35 36 35 34 34 33 34 35 36 36 36 38 39 40 40 40 39 36 34 34 34 34 35 36
32 31 31 32 32 34 37 38 38 38 38 39 41 41 40 40 39 38 38 39 38 37 35 35 36 36 36 36 36 36 36 36 36 37 38 36 34 34 33 34 37 37
35 34 32 31 31 33 36 38 37 37 37 39 40 40 40 42 42 43 44 44 44 42 39 38 38 37 36 35 36 35 35 35 34 34 35 35 35 35 34 35 37 39
34 35 34 33 32 32 33 34 33 33 35 37 37 37 39 42 44 45 46 46 46 46 44 43 42 40 38 36 34 34 33 34 34 34 34 35 35 36 36 37 38 39
33 34 34 34 32 31 30 29 29 30 32 34 35 36 39 42 43 45 45 45 44 44 43 43 43 43 40 38 36 36 35 35 34 35 36 36 37 37 38 40 41 40
35 35 35 35 33 32 31 29 27 27 28 30 34 36 38 39 41 42 43 43 43 42 42 42 42 41 40 39 39 39 39 37 36 36 37 37 38 38 40 43 44 43
39 39 39 39 38 38 38 35 34 34 32 31 33 35 36 36 37 38 39 40 41 41 41 42 42 42 41 40 40 39 39 40 39 38 37 38 39 39 40 42 43 43
45 43 43 45 45 44 44 43 43 42 40 38 37 36 36 35 36 36 36 37 37 38 38 39 41 43 43 42 40 39 40 41 41 39 38 39 41 42 42 42 43 44
54 50 49 50 49 47 46 46 46 46 46 46 43 42 42 41 40 40 39 38 37 37 37 37 38 39 41 42 41 41 41 42 41 40 40 40 41 43 44 45 46 45
64 60 58 55 54 54 53 53 53 51 52 52 51 49 49 48 48 47 45 44 42 42 41 41 41 42 41 42 43 43 42 42 41 41 40 41 42 42 43 44 43 43
72 68 65 63 62 62 62 62 62 62 62 62 61 60 59 56 54 52 51 49 47 46 46 46 45 45 45 45 45 45 45 44 42 42 41 41 40 41 42 43 43 45
77 73 70 70 68 66 65 65 67 68 68 67 66 65 66 65 64 63 62 60 58 57 57 55 53 52 53 52 50 49 48 47 44 43 43 43 42 42 43 44 46 51
77 76 74 74 72 68 65 66 67 69 70 70 70 70 70 70 68 67 67 68 68 67 67 68 68 67 67 66 63 60 57 55 53 49 45 44 45 45 46 46 47 51
77 78 79 79 75 69 66 64 66 68 69 72 75 74 74 72 69 69 68 67 67 66 66 69 72 73 72 73 74 71 66 65 66 63 55 50 47 47 48 49 49 50
77 77 82 82 76 72 68 65 66 69 70 74 78 77 76 75 73 73 71 69 66 65 63 63 66 70 72 74 77 75 71 68 69 68 64 58 55 53 52 54 54 54
76 76 81 82 76 74 71 67 69 74 75 76 77 75 73 73 73 74 75 75 73 70 66 62 62 66 71 74 75 75 72 67 66 68 65 61 61 61 60 59 59 61
79 78 80 81 78 78 77 71 70 76 79 78 75 72 69 68 68 70 73 75 75 72 69 66 64 65 70 75 76 75 71 64 61 61 59 56 57 61 63 63 62 62
84 83 83 84 82 80 79 74 70 72 77 79 78 75 72 68 66 66 68 71 73 73 71 70 68 67 70 73 73 72 69 62 57 55 53 51 52 55 61 66 67 66
83 82 80 84 85 82 80 77 74 74 75 77 77 76 74 71 68 67 67 68 71 72 72 72 72 72 71 71 71 70 68 62 58 57 55 53 52 54 59 65 69 68
76 75 75 78 82 82 82 81 81 80 78 78 77 77 76 75 73 71 70 68 69 72 72 73 74 75 74 72 71 72 70 64 59 58 57 55 55 57 61 66 70 70
72 74 75 77 79 80 83 85 88 89 87 84 83 82 81 79 76 74 73 70 71 73 73 72 72 74 76 75 74 73 71 68 64 62 60 59 59 63 66 69 72 72
72 75 77 81 83 85 87 89 92 94 93 91 90 88 86 84 81 79 77 74 72 72 72 71 70 72 74 76 77 76 72 70 72 72 70 69 68 71 75 74 73 72
71 74 78 82 85 87 90 92 93 92 90 90 89 87 85 84 82 80 79 77 74 73 71 72 72 72 73 74 77 76 73 72 75 77 79 79 78 80 82 79 78 77
70 73 77 79 80 81 84 86 87 86 85 84 82 80 79 78 78 76 75 75 76 77 77 77 76 75 74 74 74 75 76 76 77 79 80 80 82 85 86 83 81 81
73 75 77 78 77 77 77 78 80 82 83 81 79 78 77 76 74 73 71 71 74 76 78 78 79 79 76 73 72 74 77 79 81 84 86 86 87 88 87 87 87 85